When you browse on this site, cookies collect data to enhance your experience and personalize the content and advertising you see.
Visit our Privacy Policy to learn more. By continuing to use the site, you agree to this use of cookies and data.
  • In Czech Republic
  • List of Countries
  • For 7 days
  • Water Temperature
  • Weather Map
  • Weather Widgets
  • user-avatar
    Login

    Hourly Weather La Massana

    Today, 24 September, Tuesday

    Time Temperature Precipitation Wind Pressure Humidity
    00:00 +9°C° 0 mm 1 mps 612 mmHg 73%
    01:00 +9°C° 0 mm 1 mps 611 mmHg 73%
    02:00 +9°C° 0 mm 1 mps 611 mmHg 73%
    03:00 +9°C° 0 mm 1 mps 610 mmHg 74%
    04:00 +9°C° 0 mm 1 mps 610 mmHg 75%
    05:00 +8°C° 0 mm 2 mps 610 mmHg 77%
    06:00 +8°C° 0 mm 2 mps 610 mmHg 79%
    07:00 +12°C° 0 mm 2 mps 611 mmHg 71%
    08:00 +15°C° 0 mm 2 mps 613 mmHg 63%
    09:00 +17°C° 0 mm 2 mps 614 mmHg 55%
    10:00 +18°C° 0 mm 2 mps 614 mmHg 53%
    11:00 +19°C° 0 mm 2 mps 614 mmHg 51%
    12:00 +19°C° 0 mm 2 mps 615 mmHg 49%
    13:00 +19°C° 0 mm 2 mps 614 mmHg 51%
    14:00 +18°C° 0 mm 2 mps 614 mmHg 53%
    15:00 +18°C° 0 mm 2 mps 613 mmHg 55%
    16:00 +16°C° 0 mm 2 mps 612 mmHg 64%
    17:00 +13°C° 0 mm 1 mps 612 mmHg 74%
    18:00 +11°C° 0 mm 1 mps 611 mmHg 84%
    19:00 +11°C° 0 mm 1 mps 611 mmHg 85%
    20:00 +10°C° 0 mm 0 mps 611 mmHg 87%
    21:00 +9°C° 0 mm 0 mps 611 mmHg 88%
    22:00 +9°C° 0 mm 0 mps 611 mmHg 89%
    23:00 +8°C° 0 mm 0 mps 610 mmHg 90%

    Tomorrow, 25 September, Wednesday

    Time Temperature Precipitation Wind Pressure Humidity
    00:00 +8°C° 0 mm 0 mps 610 mmHg 91%
    01:00 +9°C° 0 mm 1 mps 610 mmHg 92%
    02:00 +8°C° 0 mm 1 mps 610 mmHg 93%
    03:00 +8°C° 0 mm 1 mps 610 mmHg 93%
    04:00 +8°C° 0 mm 1 mps 610 mmHg 94%
    05:00 +8°C° 0 mm 1 mps 610 mmHg 94%
    06:00 +8°C° 0 mm 1 mps 609 mmHg 95%
    07:00 +9°C° 0.1 mm 1 mps 610 mmHg 92%
    08:00 +10°C° 0.1 mm 1 mps 611 mmHg 89%
    09:00 +11°C° 0.1 mm 1 mps 612 mmHg 86%
    10:00 +11°C° 0.1 mm 1 mps 612 mmHg 84%
    11:00 +11°C° 0.1 mm 1 mps 612 mmHg 83%
    12:00 +10°C° 0.1 mm 2 mps 612 mmHg 81%
    13:00 +11°C° 0.1 mm 1 mps 611 mmHg 82%
    14:00 +11°C° 0.1 mm 1 mps 611 mmHg 82%
    15:00 +11°C° 0.1 mm 1 mps 611 mmHg 83%
    16:00 +10°C° 0.1 mm 1 mps 611 mmHg 85%
    17:00 +10°C° 0.1 mm 1 mps 611 mmHg 87%
    18:00 +9°C° 0.1 mm 1 mps 611 mmHg 89%
    19:00 +9°C° 0.1 mm 1 mps 611 mmHg 90%
    20:00 +8°C° 0.1 mm 1 mps 611 mmHg 91%
    21:00 +8°C° 0.1 mm 1 mps 611 mmHg 92%
    22:00 +8°C° 0 mm 1 mps 611 mmHg 93%
    23:00 +8°C° 0 mm 1 mps 611 mmHg 93%

    Day after tomorrow, 26 September, Thursday

    Time Temperature Precipitation Wind Pressure Humidity
    00:00 +7°C° 0 mm 1 mps 611 mmHg 94%
    01:00 +7°C° 0 mm 1 mps 611 mmHg 93%
    02:00 +6°C° 0 mm 1 mps 611 mmHg 92%
    03:00 +6°C° 0 mm 1 mps 610 mmHg 92%
    04:00 +6°C° 0 mm 1 mps 611 mmHg 92%
    05:00 +6°C° 0 mm 1 mps 611 mmHg 92%
    06:00 +6°C° 0 mm 1 mps 611 mmHg 92%
    07:00 +8°C° 0 mm 1 mps 612 mmHg 83%
    08:00 +11°C° 0 mm 1 mps 614 mmHg 75%
    09:00 +12°C° 0 mm 0 mps 615 mmHg 66%
    10:00 +15°C° 0 mm 1 mps 615 mmHg 62%
    11:00 +16°C° 0 mm 1 mps 616 mmHg 57%
    12:00 +18°C° 0 mm 1 mps 616 mmHg 52%
    13:00 +17°C° 0 mm 2 mps 615 mmHg 55%
    14:00 +17°C° 0 mm 2 mps 615 mmHg 57%
    15:00 +16°C° 0 mm 2 mps 615 mmHg 59%
    16:00 +14°C° 0 mm 1 mps 614 mmHg 68%
    17:00 +12°C° 0 mm 1 mps 613 mmHg 77%
    18:00 +9°C° 0 mm 0 mps 612 mmHg 86%
    19:00 +9°C° 0 mm 0 mps 612 mmHg 86%
    20:00 +10°C° 0 mm 1 mps 612 mmHg 87%
    21:00 +9°C° 0 mm 1 mps 613 mmHg 87%
    22:00 +9°C° 0 mm 1 mps 612 mmHg 86%
    23:00 +9°C° 0 mm 1 mps 612 mmHg 85%

    27 September, Friday

    Time Temperature Precipitation Wind Pressure Humidity
    00:00 +9°C° 0 mm 1 mps 612 mmHg 85%
    01:00 +9°C° 0 mm 1 mps 612 mmHg 84%
    02:00 +8°C° 0 mm 1 mps 612 mmHg 84%
    03:00 +8°C° 0 mm 1 mps 612 mmHg 84%
    04:00 +8°C° 0 mm 1 mps 612 mmHg 84%
    05:00 +8°C° 0 mm 1 mps 612 mmHg 85%
    06:00 +8°C° 0 mm 1 mps 612 mmHg 85%
    07:00 +10°C° 0 mm 1 mps 613 mmHg 77%
    08:00 +13°C° 0 mm 1 mps 614 mmHg 69%
    09:00 +15°C° 0 mm 1 mps 615 mmHg 61%
    10:00 +16°C° 0 mm 1 mps 616 mmHg 56%
    11:00 +17°C° 0 mm 2 mps 616 mmHg 52%
    12:00 +18°C° 0 mm 2 mps 616 mmHg 47%
    13:00 +18°C° 0 mm 2 mps 616 mmHg 50%
    14:00 +17°C° 0 mm 2 mps 615 mmHg 53%
    15:00 +17°C° 0 mm 2 mps 615 mmHg 56%
    16:00 +15°C° 0 mm 2 mps 614 mmHg 65%
    17:00 +13°C° 0 mm 1 mps 614 mmHg 75%
    18:00 +11°C° 0 mm 1 mps 613 mmHg 84%
    19:00 +11°C° 0 mm 1 mps 613 mmHg 86%
    20:00 +10°C° 0 mm 1 mps 613 mmHg 89%
    21:00 +10°C° 0 mm 1 mps 613 mmHg 91%
    22:00 +9°C° 0 mm 1 mps 613 mmHg 91%
    23:00 +8°C° 0 mm 0 mps 613 mmHg 92%

    28 September, Saturday

    Time Temperature Precipitation Wind Pressure Humidity
    00:00 +8°C° 0 mm 0 mps 613 mmHg 92%
    01:00 +7°C° 0 mm 0 mps 613 mmHg 93%
    02:00 +7°C° 0 mm 0 mps 613 mmHg 93%
    03:00 +8°C° 0 mm 1 mps 613 mmHg 94%
    04:00 +8°C° 0 mm 1 mps 613 mmHg 95%
    05:00 +8°C° 0 mm 1 mps 613 mmHg 95%
    06:00 +8°C° 0 mm 1 mps 613 mmHg 95%
    07:00 +10°C° 0 mm 1 mps 614 mmHg 89%
    08:00 +12°C° 0 mm 1 mps 615 mmHg 82%
    09:00 +14°C° 0 mm 1 mps 616 mmHg 75%
    10:00 +15°C° 0 mm 2 mps 616 mmHg 70%
    11:00 +16°C° 0 mm 2 mps 616 mmHg 65%
    12:00 +17°C° 0 mm 2 mps 617 mmHg 60%
    13:00 +17°C° 0 mm 2 mps 616 mmHg 62%
    14:00 +16°C° 0 mm 2 mps 616 mmHg 63%
    15:00 +16°C° 0 mm 2 mps 615 mmHg 65%
    16:00 +14°C° 0 mm 1 mps 614 mmHg 74%
    17:00 +12°C° 0 mm 1 mps 613 mmHg 84%
    18:00 +11°C° 0 mm 1 mps 613 mmHg 94%
    19:00 +10°C° 0 mm 1 mps 613 mmHg 94%
    20:00 +10°C° 0 mm 1 mps 613 mmHg 95%
    21:00 +10°C° 0 mm 1 mps 613 mmHg 95%
    22:00 +10°C° 0 mm 1 mps 612 mmHg 93%
    23:00 +10°C° 0 mm 1 mps 612 mmHg 91%

    29 September, Sunday

    Time Temperature Precipitation Wind Pressure Humidity
    00:00 +10°C° 0 mm 1 mps 612 mmHg 89%
    01:00 +9°C° 0 mm 1 mps 611 mmHg 87%
    02:00 +9°C° 0 mm 1 mps 611 mmHg 84%
    03:00 +8°C° 0 mm 2 mps 610 mmHg 81%
    04:00 +8°C° 0 mm 2 mps 610 mmHg 81%
    05:00 +8°C° 0 mm 2 mps 610 mmHg 80%
    06:00 +8°C° 0 mm 2 mps 610 mmHg 80%
    07:00 +11°C° 0 mm 1 mps 611 mmHg 72%
    08:00 +14°C° 0 mm 1 mps 613 mmHg 64%
    09:00 +18°C° 0 mm 1 mps 614 mmHg 57%
    10:00 +19°C° 0 mm 1 mps 614 mmHg 51%
    11:00 +19°C° 0 mm 2 mps 615 mmHg 45%
    12:00 +20°C° 0 mm 2 mps 615 mmHg 40%
    13:00 +19°C° 0 mm 2 mps 614 mmHg 44%
    14:00 +18°C° 0 mm 2 mps 614 mmHg 48%
    15:00 +18°C° 0 mm 2 mps 613 mmHg 52%
    16:00 +15°C° 0 mm 1 mps 613 mmHg 62%
    17:00 +13°C° 0 mm 1 mps 612 mmHg 73%
    18:00 +10°C° 0 mm 0 mps 611 mmHg 84%
    19:00 +11°C° 0 mm 1 mps 611 mmHg 85%
    20:00 +10°C° 0 mm 1 mps 611 mmHg 86%
    21:00 +10°C° 0 mm 1 mps 611 mmHg 88%
    22:00 +10°C° 0 mm 1 mps 611 mmHg 88%
    23:00 +9°C° 0 mm 1 mps 611 mmHg 87%
    Show more